Location: Abundant Grace Fellowship
(35.0349°N, 90.0924°W)
Time: 15:51:17
(UTC+00:00)

SL-12 R/B(2) - Pass Details

Date: 18 January 2026
Orbit: 1171 x 2178 km, 63.4° (Epoch: 18 February)

Event Time Altitude Azimuth Distance (km) Brightness Sun altitude
Exits shadow 11:30:29 - 228° (SW) 3,377 6.0 -19.6°
Reaches altitude 10° 11:31:02 10° 229° (SW) 3,194 5.8 -19.5°
Maximum altitude 11:38:31 57° 307° (NW) 1,583 4.2 -18.0°
Drops below altitude 10° 11:47:32 10° 25° (NNE) 3,814 6.7 -16.2°
Sets 11:51:00 0° 30° (NNE) 4,952 7.4 -15.5°
